Regional Weather Roundup
Issued by NWS

Home | Current Version | Previous Version | Graphics & Text | Print | Product List | Glossary On
Versions: 1 2 3 4 5 6 7 8 9 10 11 12 13 14 15 16 17 18 19 20 21 22 23 24 25 26 27 28 29 30 31 32 33 34 35 36 37 38 39 40 41 42 43 44 45 46 47 48 49 50
000
ASUS43 KBIS 231210
RWRND

NORTH DAKOTA REGIONAL WEATHER ROUNDUP
NATIONAL WEATHER SERVICE BISMARCK ND
600 AM CST SUN NOV 23 2014

NOTE: "FAIR" INDICATES FEW OR NO CLOUDS BELOW 12,000 FEET WITH NO
SIGNIFICANT WEATHER AND/OR OBSTRUCTIONS TO VISIBILITY.


NDZ001>003-009>011-017-231300-
NORTHWEST NORTH DAKOTA

CITY           SKY/WX    TMP DP  RH WIND       PRES   REMARKS
WILLISTON      LGT SNOW  24  19  81 W22G35    29.50R WCI   9
6HR MIN TEMP:  24; 6HR MAX TEMP:  40; 6HR PCP: TRACE;

MINOT          CLOUDY    37  28  70 W21G30    29.35R
MINOT AFB      CLOUDY    36  28  72 W25       29.34R
$$

NDZ018>021-031>035-040>046-231300-
SOUTHWEST NORTH DAKOTA

CITY           SKY/WX    TMP DP  RH WIND       PRES   REMARKS
BISMARCK       CLOUDY    39  32  76 W13       29.45R
6HR MIN TEMP:  31; 6HR MAX TEMP:  40; 6HR PCP: TRACE;

DICKINSON      CLOUDY    35  28  75 W20G29    29.45R
GARRISON         N/A     38  28  67 W17G35    29.39R
6HR MIN TEMP:  36; 6HR MAX TEMP:  40;

HETTINGER ARPT CLOUDY    36  27  69 W25G33    29.52R
$$

NDZ004>008-012>016-024-026-027-054-231300-
NORTHEAST NORTH DAKOTA

CITY           SKY/WX    TMP DP  RH WIND       PRES   REMARKS
GRAND FORKS    LGT RAIN  33  30  88 S5        29.35F
GRND FRKS AFB  CLOUDY    43  36  75 W15G23    29.35F
DEVILS LAKE    CLOUDY    37  27  65 SW10      29.34R
$$

NDZ022-023-025-028>030-036>039-047>053-231300-
SOUTHEAST NORTH DAKOTA

CITY           SKY/WX    TMP DP  RH WIND       PRES   REMARKS
FARGO          CLOUDY    34  31  88 SE5       29.39S FOG
6HR MIN TEMP:  32; 6HR MAX TEMP:  36;

JAMESTOWN      CLOUDY    40  33  76 W13       29.40R
$$




USA.gov is the U.S. government's official web portal to all federal, state and local government web resources and services.